Terminal Aerodrome Forecast
Issued by NWS

Home | Current Version | Previous Version | Graphics & Text | Print | Product List | Glossary On
Versions: 1 2 3 4 5 6 7 8 9 10 11 12 13 14 15 16 17 18 19 20 21 22 23 24 25 26 27
000
FTUS43 KABR 172300
TAFPIR
TAF
KPIR 172323Z 1800/1824 16014G22KT P6SM FEW040 FEW070
     FM181900 16025G33KT P6SM BKN150=

USA.gov is the U.S. government's official web portal to all federal, state and local government web resources and services.